Location: Dehesa de la Cepeda
(40.6574°N, 4.3013°W)
Time: 19:58:38
(UTC+00:00)

Cosmos 1328 - Pass Details

Date: 05 July 2020
Orbit: 538 x 546 km, 82.5° (Epoch: 05 August)

Event Time Altitude Azimuth Distance (km) Brightness Sun altitude
Exits shadow 21:37:14 12° 199° (SSW) 1,652 5.9 -16.0°
Maximum altitude 21:40:47 61° 279° (W) 619 4.2 -16.4°
Drops below altitude 10° 21:44:44 10° 1° (N) 1,812 7.2 -16.9°
Sets 21:46:55 0° 4° (N) 2,708 8.1 -17.1°
